一网星座-0198星 (ONEWEB-0198 )

导读 | 豆包AI

ONEWEB-0198是英国主导的OneWeb低轨卫星星座中的一员,于2021年4月25日发射入轨,属于一期组网卫星。它依托Ku/Ka频段提供全球宽带互联网服务,尤其在极地区域覆盖具备独特优势。卫星重约147.5公斤,设计寿命5年,采用霍尔效应推进系统,遵循空间碎片规范,服务期满后会主动离轨,目前在轨为全球偏远地区、航空航海及应急场景提供低延迟高速网络连接。

Basic Information
目录编号:
48216
目录名称:
ONEWEB-0198
国际标识:
2021-031G
轨道中心:
EARTH
卫星名称:
一网星座-0198星
卫星全名:
一网星座-0198星 (ONEWEB-0198 )
卫星状态:
在轨 (已飞行1784 天)
发射日期:
2021-04-25 UTC
国别 :
英国 (GB)
星等 :
--
Orbit Information
数据来源 国际轨道数据 AOE轨道数据
星历时间 2026-03-14T06:15:13+0800
11小时前
查看轨道信息
2026-03-11T12:00:00+0800
3天前
查看轨道信息
半长轴 7583.928km 7583.949km
偏心率 0.00021 0.0001618
轨道倾角 87.898° 87.898°
近地点辐角 80.372° 64.265°
升交点赤经 308.729° 309.279°
平近点角 279.765° 199.710°
近地点 1204.198km 1204.584km
远地点 1207.384km 1207.04km
周期 109.547分钟 109.548分钟
每日圈数 13.145028 13.144974
Detailed Information
平衡模式:
三轴稳定
覆盖范围:
全球
运营商:
一网卫星公司
运营商所在国:
英国
制造商(研发单位):
一网卫星公司
制造商所在国:
英国
使用方式:
暂无
Satellite Introduction
OneWeb卫星网络由648颗重约125公斤的微型卫星组成,运行在1200公里的轨道上。 每颗卫星都能够提供至少每秒8千兆位的吞吐量,以使用其高吞吐量的Ku频段有效载荷为家庭和移动平台提供互联网接入。该卫星仍在工作。
2D Orbit Map
3D Orbit Map
Orbit Altitude Analysis Chart
Orbit Inclination Analysis Chart
Orbit Comprehensive Analysis Chart
View Comprehensive Chart